CZ-6A DEB

Satellite information

Favourite Embed

Satellite Type and Status

DEBRISIN ORBIT

Key statistics

Satellite CZ-6A DEB at a glance.

Uptime

970

Days in orbit

Revolutions

≈ 14.1

Per day

Orbit

SSO

Sun Synchronous Orbit

Inclination

98.8

Latest

Satellite identification and parameters

Extended collection of information and parameters for CZ-6A DEB.

Object identification

Identified? True

Debris? True

Object name: CZ-6A DEB

International designator: 2022-151LE

Object number (NORAD): 54554

Object ID (CCSDS): 54554

Country: PEOPLES REPUBLIC OF CHINA (PRC)

Current information (Y/N): Y

RCS size: SMALL

Orbital parameters

Period: 102.108 minutes

Inclination: 98.8412 deg

SMA: 7236.581 km

Apoapsis: 894.673 km

Periapsis: 822.22 km

RAAN: 192.238 deg

Eccentricy: 0.005006

Argument of periapsis: 190.6518 deg

Mean anomaly: 169.3597 deg

Mean motion: 14.10271065 rev/day

Mean motion (dot): 0.00000144 rev/day2

B* drag term: 0.00010485 1/REarth

Two-line elements (TLE)

Creation date: July 8, 2025, 2:27 a.m.

Reference frame: TEME

Reference center: EARTH

Epoch: July 7, 2025, 9:40 p.m. UTC

TLE line 0: 0 CZ-6A DEB

TLE line 1: 1 54554U 22151LE 25188.90335440 .00000144 00000-0 10485-3 0 9996

TLE line 2: 2 54554 98.8412 192.2380 0050060 190.6518 169.3597 14.10271065136246

Live tracking on map

Real-time ground track for satellite CZ-6A DEB.

In-orbit conjunctions

A list of the most updated potential collisions computed for object CZ-6A DEB.

Target Orbit TCA Probability of collision Miss distance Type
THOR ABLESTAR DEB LEO 2024-11-12 02:25:48 0.0001414359 475.0 (m) DEBRIS
METEOR 1-20 LEO 2024-08-16 13:09:36 0.000174606 94.0 (m) PAYLOAD

Associated space launch

Chinese satellite reported for atmospheric/ocean/environmental/spatial parameter research purposes, details TBD.

CZ-6A DEB was lifted into orbit during the mission ‘Long March 6A | Yunhai 3’, on board a Long March 6A space rocket.

The launch took place on Nov. 11, 2022, 10:52 p.m. from Launch Complex 9A.

For more information about the launch, click the button.

Launch to space Long March 6A | Yunhai 3
Long March 6A | Yunhai 3

Agency: N/A

Status: Launch Successful

Launch date: Nov. 11, 2022, 10:52 p.m. UTC

Rocket: Long March 6A

Launch pad: Launch Complex 9A

Location: Taiyuan Satellite Launch Center, People's Republic of China

...

Latest news about this satellite

There are no fresh news available about this satellite. Check back as we update our databases every day.


Newsletter sign-up

Weekly statistics, charts and insights to help you stay on top of the space industry.